Alamogordo, NM

4:20 PM MDT on October 19, 2017 (GMT -0600)
Alamogordo-White Sands Regional

Weather History for KALM - March, 2013

Change the Weather History Date:

Sunday, March 24, 2013

  Actual Average Record
Temperature  
Mean Temperature 40 °F -  
Max Temperature 57 °F 71 °F 83 °F (1967)
Min Temperature 24 °F 41 °F 23 °F (1955)
Degree Days  
Heating Degree Days 24    
Moisture  
Dew Point -6 °F    
Average Humidity 14    
Maximum Humidity 31    
Minimum Humidity 8    
Precipitation  
Precipitation 0.00 in - - ()
Sea Level Pressure  
Sea Level Pressure 30.05 in    
Wind  
Wind Speed 9 mph (South)    
Max Wind Speed 15 mph    
Max Gust Speed 18 mph    
Visibility 10 miles    
Events      
Averages and records for this station are not official NWS values.
T = Trace of Precipitation, MM = Missing Value Source: NWS Daily Summary

Daily Weather History Graph

Daily Weather History Graph

Search for Another Location

Airport or City:

Trip Planner

Search our weather history database for the weather conditions in past years. The results will help you decide how hot, cold, wet, or windy it might be!

Date:

Astronomy

Mar. 24, 2013 Rise Set
Actual Time 7:02 AM MDT 7:18 PM MDT
Civil Twilight 6:37 AM MDT 7:43 PM MDT
Nautical Twilight 6:08 AM MDT 8:12 PM MDT
Astronomical Twilight 5:39 AM MDT 8:41 PM MDT
Moon 4:56 PM MDT (3/24) 5:06 AM MDT (3/24)
Length of Visible Light 13h 05m
Length of Day
12h 16m
Waxing Gibbous, 92% of the Moon is Illuminated
Mar 24
Waxing Gibbous
Mar 27
Full
Apr 2
Last Quarter
Apr 10
New
Apr 18
First Quarter

Hourly Weather History & Observations

Time (MDT) Temp. Windchill Dew Point Humidity Pressure Visibility Wind Dir Wind Speed Gust Speed Precip Events Conditions
12:15 AM 41.0 °F 34.3 °F -18.4 °F 8% 30.04 in 10.0 mi North 11.5 mph - N/A   Clear
12:35 AM 41.0 °F 33.5 °F -18.4 °F 8% 30.05 in 10.0 mi North 13.8 mph - N/A   Clear
12:55 AM 39.2 °F 30.8 °F -16.6 °F 9% 30.06 in 10.0 mi NNW 15.0 mph - N/A   Clear
1:35 AM 37.4 °F 28.9 °F -16.6 °F 9% 30.07 in 10.0 mi NNW 13.8 mph - N/A   Clear
1:55 AM 35.6 °F 27.1 °F -16.6 °F 10% 30.06 in 10.0 mi NNW 12.7 mph - N/A   Clear
2:15 AM 35.6 °F 28.0 °F -18.4 °F 9% 30.07 in 10.0 mi North 10.4 mph - N/A   Clear
2:35 AM 35.6 °F 27.1 °F -16.6 °F 10% 30.07 in 10.0 mi NNW 12.7 mph - N/A   Clear
2:55 AM 37.4 °F 29.8 °F -16.6 °F 9% 30.07 in 10.0 mi NNW 11.5 mph - N/A   Clear
3:15 AM 37.4 °F 30.3 °F -16.6 °F 9% 30.07 in 10.0 mi North 10.4 mph - N/A   Clear
3:35 AM 33.8 °F 25.8 °F -18.4 °F 10% 30.08 in 10.0 mi NNW 10.4 mph - N/A   Clear
3:55 AM 32.0 °F 23.6 °F -18.4 °F 11% 30.08 in 10.0 mi North 10.4 mph - N/A   Clear
4:15 AM 32.0 °F 23.6 °F -16.6 °F 12% 30.09 in 10.0 mi NNW 10.4 mph - N/A   Clear
4:35 AM 32.0 °F 26.4 °F -16.6 °F 12% 30.09 in 10.0 mi NE 5.8 mph - N/A   Clear
4:55 AM 32.0 °F - -14.8 °F 13% 30.10 in 10.0 mi Calm Calm - N/A   Clear
5:15 AM 28.4 °F 19.1 °F -13.0 °F 16% 30.11 in 10.0 mi SSE 10.4 mph - N/A   Clear
5:35 AM 24.8 °F 16.9 °F -14.8 °F 17% 30.12 in 10.0 mi South 6.9 mph - N/A   Clear
5:55 AM 24.8 °F 16.9 °F -13.0 °F 19% 30.13 in 10.0 mi SE 6.9 mph - N/A   Clear
6:15 AM 24.8 °F 16.1 °F -7.6 °F 24% 30.13 in 10.0 mi South 8.1 mph - N/A   Clear
6:35 AM 24.8 °F 17.9 °F -7.6 °F 24% 30.14 in 10.0 mi South 5.8 mph - N/A   Clear
6:55 AM 24.8 °F 16.9 °F -4.0 °F 28% 30.14 in 10.0 mi South 6.9 mph - N/A   Clear
7:15 AM 24.8 °F 17.9 °F -2.2 °F 31% 30.15 in 10.0 mi SSE 5.8 mph - N/A   Clear
7:35 AM 24.8 °F 19.1 °F -2.2 °F 31% 30.15 in 10.0 mi SSE 4.6 mph - N/A   Clear
7:55 AM 26.6 °F 20.0 °F -2.2 °F 29% 30.16 in 10.0 mi SSE 5.8 mph - N/A   Clear
8:15 AM 28.4 °F 21.2 °F -2.2 °F 27% 30.17 in 10.0 mi South 6.9 mph - N/A   Clear
8:35 AM 32.0 °F 25.6 °F -2.2 °F 23% 30.17 in 10.0 mi SSW 6.9 mph - N/A   Clear
8:55 AM 32.0 °F 25.6 °F -2.2 °F 23% 30.18 in 10.0 mi SSW 6.9 mph - N/A   Clear
9:15 AM 35.6 °F 29.9 °F -2.2 °F 20% 30.18 in 10.0 mi SSW 6.9 mph - N/A   Clear
9:35 AM 37.4 °F 31.4 °F -2.2 °F 19% 30.18 in 10.0 mi South 8.1 mph - N/A   Clear
9:55 AM 41.0 °F 34.7 °F -2.2 °F 16% 30.17 in 10.0 mi South 10.4 mph - N/A   Clear
10:15 AM 41.0 °F 33.9 °F -4.0 °F 15% 30.17 in 10.0 mi South 12.7 mph - N/A   Clear
10:35 AM 42.8 °F 38.0 °F -4.0 °F 14% 30.17 in 10.0 mi SW 8.1 mph - N/A   Clear
10:55 AM 44.6 °F 40.7 °F -4.0 °F 13% 30.16 in 10.0 mi SSW 6.9 mph - N/A   Clear
11:15 AM 44.6 °F 40.2 °F -4.0 °F 13% 30.15 in 10.0 mi South 8.1 mph - N/A   Clear
11:35 AM 46.4 °F 41.1 °F -4.0 °F 12% 30.14 in 10.0 mi South 11.5 mph 17.3 mph N/A   Clear
11:55 AM 46.4 °F 41.9 °F -4.0 °F 12% 30.14 in 10.0 mi SSW 9.2 mph - N/A   Clear
12:15 PM 48.2 °F - -4.0 °F 11% 30.12 in 10.0 mi SSW 11.5 mph 17.3 mph N/A   Clear
12:35 PM 48.2 °F - -2.2 °F 12% 30.11 in 10.0 mi SSW 9.2 mph 18.4 mph N/A   Clear
12:55 PM 48.2 °F - -2.2 °F 12% 30.10 in 10.0 mi South 8.1 mph 18.4 mph N/A   Clear
1:15 PM 50.0 °F - -2.2 °F 12% 30.09 in 10.0 mi SSW 5.8 mph 18.4 mph N/A   Clear
1:35 PM 50.0 °F - -2.2 °F 12% 30.07 in 10.0 mi South 3.5 mph - N/A   Clear
1:55 PM 51.8 °F - -2.2 °F 11% 30.05 in 10.0 mi South 8.1 mph - N/A   Clear
2:15 PM 53.6 °F - -2.2 °F 10% 30.04 in 10.0 mi WSW 6.9 mph - N/A   Clear
2:35 PM 53.6 °F - -2.2 °F 10% 30.02 in 10.0 mi South 9.2 mph - N/A   Clear
2:55 PM 53.6 °F - -2.2 °F 10% 30.00 in 10.0 mi WSW 10.4 mph 17.3 mph N/A   Clear
3:15 PM 53.6 °F - -2.2 °F 10% 29.99 in 10.0 mi SSW 9.2 mph - N/A   Clear
3:35 PM 55.4 °F - -2.2 °F 9% 29.98 in 10.0 mi South 4.6 mph - N/A   Clear
3:55 PM 55.4 °F - -2.2 °F 9% 29.97 in 10.0 mi South 4.6 mph - N/A   Clear
4:15 PM 55.4 °F - -4.0 °F 9% 29.96 in 10.0 mi Calm Calm - N/A   Clear
4:35 PM 57.2 °F - -2.2 °F 9% 29.95 in 10.0 mi South 5.8 mph - N/A   Clear
4:55 PM 57.2 °F - -4.0 °F 8% 29.95 in 10.0 mi Calm Calm - N/A   Clear
5:15 PM 57.2 °F - -4.0 °F 8% 29.94 in 10.0 mi WSW 3.5 mph - N/A   Clear
5:35 PM 57.2 °F - -4.0 °F 8% 29.94 in 10.0 mi SSW 5.8 mph - N/A   Clear
5:55 PM 57.2 °F - -2.2 °F 9% 29.93 in 10.0 mi SSE 8.1 mph - N/A   Clear
6:15 PM 57.2 °F - -2.2 °F 9% 29.93 in 10.0 mi SSE 8.1 mph - N/A   Clear
6:35 PM 55.4 °F - -2.2 °F 9% 29.92 in 10.0 mi SSE 10.4 mph - N/A   Clear
6:55 PM 55.4 °F - -2.2 °F 9% 29.92 in 10.0 mi SSE 6.9 mph - N/A   Clear
7:15 PM 51.8 °F - -0.4 °F 12% 29.92 in 10.0 mi South 6.9 mph - N/A   Clear
7:35 PM 50.0 °F - -2.2 °F 12% 29.93 in 10.0 mi South 4.6 mph - N/A   Clear
7:55 PM 51.8 °F - -4.0 °F 10% 29.93 in 10.0 mi South 5.8 mph - N/A   Clear
8:15 PM 50.0 °F - -4.0 °F 11% 29.94 in 10.0 mi South 3.5 mph - N/A   Clear
8:35 PM 44.6 °F - -5.8 °F 12% 29.95 in 10.0 mi Calm Calm - N/A   Clear
8:55 PM 46.4 °F 44.3 °F -2.2 °F 13% 29.95 in 10.0 mi NE 4.6 mph - N/A   Clear
9:15 PM 44.6 °F 43.1 °F -2.2 °F 14% 29.96 in 10.0 mi ENE 3.5 mph - N/A   Clear
9:35 PM 42.8 °F 37.0 °F -5.8 °F 13% 29.97 in 10.0 mi NE 10.4 mph - N/A   Clear
9:55 PM 41.0 °F 35.2 °F -4.0 °F 15% 29.97 in 10.0 mi NE 9.2 mph - N/A   Clear
10:15 PM 42.8 °F 38.6 °F -0.4 °F 16% 29.98 in 10.0 mi NE 6.9 mph - N/A   Clear
10:35 PM 44.6 °F 40.7 °F -2.2 °F 14% 29.98 in 10.0 mi ENE 6.9 mph - N/A   Clear
10:55 PM 42.8 °F 38.6 °F -2.2 °F 15% 29.98 in 10.0 mi NE 6.9 mph - N/A   Clear
11:15 PM 41.0 °F 36.4 °F -4.0 °F 15% 29.99 in 10.0 mi ENE 6.9 mph - N/A   Clear
11:35 PM 41.0 °F 37.1 °F -2.2 °F 16% 29.99 in 10.0 mi NE 5.8 mph - N/A   Clear
11:55 PM 41.0 °F 37.1 °F -2.2 °F 16% 30.00 in 10.0 mi North 5.8 mph - N/A   Clear